[[{"header":{"parameterUnit":"m.s-1","parameterCategory":1,"la1":30.2991,"la2":30.254,"lo1":-89.0895,"lo2":-89.0444,"dy":0.0017,"dx":0.0017,"nx":28,"ny":28,"refTime":"2025-04-23T09:00:00:Z","depth":0,"parameterNumber":2,"parameterNumberName":"U-component_of_WINDS"},"data":[0,0,0,0,0,0,0,0,0,0,0,0,0,0,0,0,0,0,0,0,0,0,0,0,0,0,0,0,0,0,0,0,0,0,0,0,0,0,0,0,0,0,0,0,0,0,0,0,0,0,0,0,0,0,0,0,0,0,-2.3355,-2.3356,0,-2.3385,-2.3385,-2.3385,-2.3352,-2.335,-2.3349,-2.3348,-2.3378,-2.338,-2.3381,0,0,0,0,0,0,0,0,0,0,0,0,0,-2.3271,-2.3273,-2.3355,-2.3356,-2.3356,-2.3385,-2.3385,-2.3385,-2.3352,-2.335,-2.3349,-2.3347,-2.3377,-2.3379,-2.3382,0,0,0,0,0,0,0,0,0,0,0,0,0,-2.3305,-2.3274,-2.3355,-2.3343,-2.3342,-2.3385,-2.3385,-2.3386,-2.3352,-2.335,-2.3348,-2.3347,-2.3376,-2.3379,-2.3382,-2.3438,0,0,-2.3391,-2.3392,0,0,0,0,0,0,0,0,-2.3303,-2.3308,-2.3344,-2.3344,-2.3343,-2.3363,-2.3366,-2.3403,-2.3353,-2.3348,-2.3348,-2.3346,-2.3374,-2.3377,-2.3387,-2.344,-2.3441,-2.3391,-2.3393,-2.3394,-2.3395,0,0,0,0,0,0,0,-2.3301,-2.3307,-2.3367,-2.3345,-2.3344,-2.3336,-2.3339,-2.3373,-2.3371,-2.3348,-2.3346,-2.335,-2.3373,-2.3384,-2.3387,-2.3441,-2.3391,-2.3394,-2.3396,-2.3397,-2.3544,-2.3546,0,0,0,0,0,0,-2.33,-2.3305,-2.3366,-2.3368,-2.3318,-2.3339,-2.3342,-2.3358,-2.3371,-2.3371,-2.3352,-2.3348,-2.338,-2.3384,-2.3388,-2.3455,-2.3394,-2.3397,-2.3399,-2.3542,-2.3545,-2.3547,0,0,0,0,0,0,-2.3298,-2.3306,-2.3365,-2.3336,-2.3343,-2.3343,-2.3361,-2.336,-2.337,-2.3373,-2.3373,-2.3363,-2.3379,-2.3384,-2.3427,-2.3456,-2.3398,-2.3401,-2.3539,-2.3543,-2.3546,-2.359,0,0,0,0,0,0,-2.3296,-2.3305,-2.3326,-2.3337,-2.3344,-2.3402,-2.3363,-2.3362,-2.3375,-2.3371,-2.3384,-2.3384,-2.3377,-2.3422,-2.343,-2.3459,-2.3403,-2.3537,-2.3541,-2.3545,-2.3586,-2.3594,-2.3602,0,0,0,0,0,-2.3293,-2.3337,-2.3327,-2.3335,-2.337,-2.3404,-2.3408,-2.34,-2.3378,-2.3399,-2.3402,-2.3383,-2.3452,-2.3427,-2.3435,-2.3466,-2.3535,-2.354,-2.3544,-2.3582,-2.3593,-2.3601,0,0,0,0,0,0,-2.3329,-2.3338,-2.3327,-2.3376,-2.3389,-2.3398,-2.3424,-2.3411,-2.3431,-2.3426,-2.3416,-2.3419,-2.3464,-2.3469,-2.3441,-2.3522,-2.349,-2.3497,-2.3516,-2.3526,-2.3534,-2.3531,-2.3406,0,0,0,0,0,-2.3342,-2.3369,-2.3375,-2.3418,-2.3425,-2.3424,-2.3438,-2.3431,-2.3445,-2.345,-2.3456,-2.347,-2.3495,-2.3511,-2.3534,-2.3588,-2.359,-2.3613,-2.3621,-2.3627,-2.3632,-2.3662,-2.3673,-2.3563,-2.3563,-2.3563,0,0,-2.337,-2.3379,-2.3396,-2.3425,-2.3435,-2.3463,-2.3429,-2.3459,-2.348,-2.3455,-2.3495,-2.35,-2.3515,-2.3564,-2.3586,-2.357,-2.3664,-2.3633,-2.3639,-2.364,-2.3668,-2.3679,-2.3688,-2.3566,-2.3565,-2.3565,0,0,-2.3435,-2.3445,-2.3481,-2.3492,-2.3508,-2.3507,-2.3516,-2.3528,-2.353,-2.3571,-2.3553,-2.3579,-2.3621,-2.3633,-2.3645,-2.3719,-2.3703,-2.3727,-2.3767,-2.3796,-2.3805,-2.3812,-2.3838,-2.3848,-2.3732,-2.3732,-2.3733,0,-2.3468,-2.3509,-2.3501,-2.3534,-2.3547,-2.3528,-2.3565,-2.3576,-2.3599,-2.3609,-2.3591,-2.3646,-2.3655,-2.3706,-2.3725,-2.3735,-2.3745,-2.3724,-2.3804,-2.3812,-2.3819,-2.3843,-2.3853,-2.3735,-2.3735,-2.3735,-2.3734,0,-2.3548,-2.3577,-2.3605,-2.3628,-2.3645,-2.368,-2.3679,-2.3697,-2.369,-2.3692,-2.3735,-2.3745,-2.377,-2.3783,-2.3775,-2.3834,-2.3824,-2.3806,-2.3773,-2.3832,-2.3855,-2.3864,-2.3739,-2.3738,-2.3737,-2.3737,0,0,-2.3632,-2.3654,-2.3664,-2.3675,-2.3692,-2.3715,-2.375,-2.3775,-2.3792,-2.3809,-2.3838,-2.3877,-2.3861,-2.3874,-2.3869,-2.3895,-2.3953,-2.3873,-2.3873,-2.3887,-2.4019,-2.4031,-2.4042,-2.3944,-2.3945,-2.3947,-2.4017,0,-2.3697,-2.3757,-2.3753,-2.381,-2.3837,-2.3821,-2.3851,-2.3866,-2.387,-2.3894,-2.3898,-2.3925,-2.3902,-2.391,-2.3936,-2.394,-2.3979,-2.3935,-2.397,-2.3972,-2.3965,-2.4054,-2.4067,-2.4133,-2.4026,-2.4028,-2.4029,0,-2.378,-2.3801,-2.3861,-2.3876,-2.3887,-2.3915,-2.3939,-2.3963,-2.398,-2.3981,-2.3998,-2.3989,-2.4025,-2.3994,-2.4044,-2.4015,-2.4029,-2.4034,-2.4037,-2.4038,-2.4002,-2.4057,-2.4153,-2.4163,-2.4043,-2.4042,-2.4041,0,-2.3835,-2.3878,-2.392,-2.393,-2.3949,-2.3969,-2.3978,-2.3994,-2.401,-2.4032,-2.4043,-2.4068,-2.4082,-2.4103,-2.4102,-2.4079,-2.4153,-2.4121,-2.4155,-2.4155,-2.4169,-2.4167,-2.4268,-2.4181,-2.4181,-2.4181,-2.4181,0,-2.3906,-2.3943,-2.3945,-2.397,-2.4012,-2.4008,-2.405,-2.4057,-2.4071,-2.4098,-2.4087,-2.4112,-2.411,-2.4136,-2.4136,-2.4178,-2.4185,-2.4187,-2.4186,-2.4187,-2.4186,-2.4194,-2.4189,-2.4183,-2.4183,-2.4182,-2.4182,0,-2.3973,-2.3976,-2.402,-2.4036,-2.4041,-2.4071,-2.4084,-2.4109,-2.4113,-2.4148,-2.4156,-2.4162,-2.4193,-2.4195,-2.423,-2.423,-2.4281,-2.4276,-2.4275,-2.4273,-2.4306,-2.4303,-2.4414,-2.4428,-2.4334,-2.4335,-2.4335,0,-2.4017,-2.4045,-2.4065,-2.4083,-2.4093,-2.4122,-2.4139,-2.4137,-2.4156,-2.418,-2.4202,-2.4232,-2.4255,-2.4306,-2.4313,-2.4341,-2.4336,-2.4373,-2.4339,-2.434,-2.4335,-2.4333,-2.4336,-2.4378,-2.438,-2.438,-2.4381,0,-2.4096,-2.4096,-2.4121,-2.4148,-2.417,-2.419,-2.421,-2.4225,-2.4226,-2.4248,-2.428,-2.4298,-2.4336,-2.4366,-2.4393,-2.4403,-2.4393,-2.4392,-2.4401,-2.4401,-2.4399,-2.44,-2.4291,-2.4389,-2.4388,-2.4387,-2.4387,-2.4387,-2.4152,-2.4177,-2.4195,-2.4224,-2.4239,-2.4258,-2.4282,-2.4291,-2.4317,-2.4347,-2.4346,-2.4381,-2.44,-2.4436,-2.4449,-2.4477,-2.4464,-2.4477,-2.448,-2.4483,-2.4486,-2.4397,-2.4482,-2.4482,-2.4482,-2.4482,-2.4481,0,-2.4229,-2.424,-2.4268,-2.4296,-2.4319,-2.4309,-2.4331,-2.4351,-2.4382,-2.4401,-2.4426,-2.4463,-2.4493,-2.4505,-2.4535,-2.4555,-2.4551,-2.4563,-2.456,-2.4563,-2.4496,-2.4485,-2.4566,-2.4565,-2.4565,-2.4565,-2.4565,-2.4565,-2.4271,-2.4313,-2.4317,-2.4367,-2.4378,-2.4413,-2.4426,-2.4444,-2.446,-2.4502,-2.4527,-2.4535,-2.4552,-2.4583,-2.4611,-2.4614,-2.4624,-2.4638,-2.4639,-2.4576,-2.4567,-2.4559,-2.4548,-2.4641,-2.4641,-2.4703,-2.4703,-2.4704]},{"header":{"parameterUnit":"m.s-1","parameterCategory":1,"la1":30.2991,"la2":30.254,"lo1":-89.0895,"lo2":-89.0444,"dy":0.0017,"dx":0.0017,"nx":28,"ny":28,"refTime":"2025-04-23T09:00:00:Z","depth":0,"parameterNumber":3,"parameterNumberName":"V-component_of_WINDS"},"data":[0,0,0,0,0,0,0,0,0,0,0,0,0,0,0,0,0,0,0,0,0,0,0,0,0,0,0,0,0,0,0,0,0,0,0,0,0,0,0,0,0,0,0,0,0,0,0,0,0,0,0,0,0,0,0,0,0,0,1.9367,1.9367,0,1.9351,1.9351,1.9351,1.9325,1.9325,1.9324,1.9324,1.9304,1.9304,1.9304,0,0,0,0,0,0,0,0,0,0,0,0,0,1.9375,1.9375,1.9367,1.9367,1.9367,1.9351,1.9351,1.9351,1.9325,1.9325,1.9324,1.9324,1.9304,1.9304,1.9304,0,0,0,0,0,0,0,0,0,0,0,0,0,1.9366,1.9375,1.9367,1.9352,1.9351,1.9351,1.9351,1.9351,1.9325,1.9325,1.9324,1.9323,1.9304,1.9304,1.9304,1.9317,0,0,1.9304,1.9304,0,0,0,0,0,0,0,0,1.9367,1.9366,1.9355,1.9353,1.9352,1.9339,1.9346,1.9339,1.9326,1.9335,1.9324,1.9323,1.9316,1.9315,1.9314,1.9316,1.9315,1.9304,1.9304,1.9304,1.9303,0,0,0,0,0,0,0,1.9368,1.9367,1.9361,1.9355,1.9353,1.9346,1.9344,1.9345,1.933,1.9334,1.9332,1.9331,1.9315,1.9314,1.9313,1.9315,1.9304,1.9304,1.9303,1.9303,1.9328,1.9328,0,0,0,0,0,0,1.9371,1.9367,1.9361,1.936,1.9358,1.9346,1.9344,1.9344,1.933,1.9327,1.9331,1.933,1.9314,1.9313,1.9312,1.9326,1.9304,1.9303,1.9303,1.9327,1.9328,1.9329,0,0,0,0,0,0,1.9371,1.937,1.9362,1.9363,1.9362,1.9347,1.9347,1.9344,1.9342,1.9328,1.9324,1.9333,1.9314,1.9312,1.9316,1.9325,1.9303,1.9303,1.9326,1.9327,1.9328,1.9355,0,0,0,0,0,0,1.9371,1.9371,1.9375,1.9364,1.9362,1.9367,1.9348,1.9344,1.9343,1.934,1.9328,1.9325,1.9313,1.9317,1.9316,1.9325,1.9303,1.9325,1.9327,1.9328,1.9353,1.9357,1.936,0,0,0,0,0,1.9372,1.9383,1.9376,1.9375,1.9368,1.9367,1.9366,1.9353,1.9343,1.9348,1.9339,1.9325,1.9325,1.9317,1.9316,1.9325,1.9324,1.9326,1.9328,1.9352,1.9356,1.936,0,0,0,0,0,0,1.9394,1.9381,1.9373,1.9381,1.9376,1.9363,1.9368,1.9358,1.9355,1.9352,1.9335,1.9333,1.9339,1.9332,1.9324,1.9337,1.9323,1.9324,1.9341,1.9345,1.9349,1.935,1.9303,0,0,0,0,0,1.9401,1.9402,1.939,1.9398,1.9396,1.9383,1.9382,1.9373,1.9366,1.9363,1.9354,1.9348,1.9346,1.9346,1.9343,1.9353,1.935,1.9358,1.9362,1.9365,1.9366,1.9371,1.9375,1.9334,1.9334,1.9334,0,0,1.9413,1.9406,1.9407,1.9402,1.9397,1.9399,1.9381,1.9383,1.9384,1.9363,1.9367,1.936,1.9352,1.9359,1.9362,1.9354,1.9377,1.9367,1.9369,1.9369,1.9373,1.9377,1.938,1.9335,1.9335,1.9335,0,0,1.9436,1.9431,1.9437,1.9433,1.9426,1.9418,1.9419,1.9409,1.9404,1.9408,1.9393,1.9394,1.9391,1.9386,1.9383,1.9407,1.9395,1.9407,1.9424,1.9429,1.9432,1.9435,1.9444,1.9447,1.9408,1.9408,1.9408,0,1.9451,1.9454,1.9442,1.9445,1.9444,1.9427,1.9433,1.943,1.9422,1.9421,1.9413,1.9411,1.9404,1.941,1.9416,1.9414,1.9415,1.9407,1.9433,1.9436,1.9438,1.9446,1.9449,1.941,1.941,1.9409,1.9409,0,1.9474,1.9476,1.9482,1.9477,1.9476,1.9481,1.9469,1.947,1.9461,1.9453,1.9458,1.9449,1.9446,1.9447,1.9437,1.9452,1.9447,1.9436,1.9421,1.9444,1.9451,1.9454,1.9412,1.9411,1.9411,1.9411,0,0,1.9509,1.9498,1.9501,1.9498,1.9491,1.9492,1.9496,1.9494,1.9495,1.9491,1.9494,1.9494,1.9484,1.9481,1.9471,1.9476,1.9496,1.9465,1.9465,1.9471,1.9512,1.952,1.9523,1.9489,1.9489,1.949,1.9513,0,1.953,1.9538,1.9528,1.9538,1.954,1.9525,1.9529,1.9525,1.9518,1.9519,1.9511,1.9511,1.9499,1.9497,1.9501,1.9493,1.9504,1.9491,1.9491,1.9491,1.9493,1.9527,1.9535,1.9557,1.9515,1.9516,1.9516,0,1.9555,1.9554,1.9564,1.9557,1.9558,1.9562,1.9559,1.956,1.9555,1.955,1.9548,1.9537,1.9541,1.9528,1.9533,1.9525,1.9524,1.952,1.9521,1.952,1.9504,1.9526,1.9563,1.9567,1.952,1.952,1.952,0,1.958,1.9581,1.9587,1.9586,1.9578,1.9581,1.9578,1.9572,1.9572,1.957,1.9569,1.9567,1.9566,1.9565,1.9554,1.9545,1.9561,1.9546,1.9556,1.9557,1.9559,1.9559,1.9596,1.956,1.956,1.956,1.956,0,1.9604,1.9611,1.9598,1.9602,1.961,1.9599,1.9606,1.9601,1.9597,1.96,1.9587,1.9589,1.9575,1.9576,1.9568,1.9574,1.9573,1.9569,1.9567,1.957,1.9571,1.9569,1.9567,1.9561,1.9561,1.9561,1.9561,0,1.9632,1.9624,1.963,1.9623,1.9621,1.9627,1.9621,1.9624,1.9618,1.9621,1.9622,1.9611,1.9612,1.9602,1.96,1.9595,1.9604,1.9599,1.9606,1.9604,1.9615,1.9614,1.9652,1.9657,1.9618,1.9619,1.9619,0,1.9648,1.9653,1.9647,1.9648,1.9646,1.9648,1.9649,1.9638,1.9639,1.9635,1.9638,1.9639,1.9638,1.964,1.9632,1.9631,1.9626,1.964,1.9626,1.9629,1.9626,1.9626,1.9626,1.9642,1.9642,1.9643,1.9643,0,1.9676,1.9673,1.9674,1.9674,1.9675,1.9675,1.9673,1.9675,1.9663,1.9665,1.9666,1.9666,1.9666,1.9666,1.9664,1.966,1.965,1.9648,1.965,1.9653,1.9657,1.9655,1.9614,1.9647,1.9646,1.9646,1.9646,1.9646,1.9699,1.9703,1.97,1.9702,1.97,1.97,1.9703,1.9698,1.9699,1.9698,1.9692,1.9695,1.9691,1.9688,1.9685,1.9687,1.968,1.9683,1.9684,1.9685,1.9687,1.9658,1.9686,1.9686,1.9686,1.9686,1.9686,0,1.9727,1.9724,1.9727,1.9726,1.9728,1.9719,1.9718,1.972,1.9723,1.972,1.9721,1.9723,1.9724,1.9717,1.9717,1.972,1.9715,1.972,1.9719,1.9719,1.9693,1.9691,1.9724,1.9724,1.9724,1.9724,1.9724,1.9724,1.9741,1.9749,1.9745,1.9751,1.9749,1.9753,1.9752,1.9752,1.975,1.9754,1.9755,1.9751,1.9747,1.9747,1.9747,1.9745,1.9745,1.9752,1.9748,1.9724,1.972,1.9717,1.9715,1.9752,1.9752,1.9774,1.9774,1.9774]}]]